"Pseudo-MPEC" for P10Mg6D

Created 2019 Feb 13 3:19:14 UT using Find_Orb

Click here for an explanation of pseudo-MPECs

 
 Astrometry: 
     P10Mg6D  C2019 01 10jtmv?.SQhP:c6DAstrometryE[Ttf'ncK6/+N+MmuG`K@HXK7/?yF51
     P10Mg6D  C2019 01 10D!oa+qfZ9MR`g#Z6\+MkJMjhMK,GK+@l)co:@.ArH.u\D1gKkyGZF51
     P10Mg6D  C2019 01 15Or2R['l!i3Mku#Mt4nEk`x8@Xd`+;f53*Ge?OWurDHdtKkn:`m+FF51
     P10Mg6D  C2019 01 150Fyj*FUJOgEHeGf_MW-gqUL=!I7%dLi@rB0Wi@'redacted;-@L'F51
     P10Mg6D  C2019 01 155N!-)$DchpR/Cus9[6aWMBc9w[2Lq;N$DR-us:^pi1p-K+C%FTRhF51
     P10Mg6D  C2019 01 15JMtNKQY!$M9NKD#P)UOUb=M-]s)+F#3L)__v2RJ(#n_SQ_c:KDA2F51
     P10Mg6D  C2019 01 16AtX$9==5)p`1s.p'`0jf$;dF'y3=ct^]R=vJZf-Ps$4i+NSuoXjYF51
     P10Mg6D  C2019 01 16wY5ZeR1ifQwqWpuk9ZtmUi%y7p5K/fHclickh!\.-GwMxtDUjs!*F51
     P10Mg6D  C2019 01 16afGXrABt0wV*Xo1VjVf4Og]IkZY-?Vx`xrpu)hYa^kq(!7*$5gt^F51
     P10Mg6D  C2019 01 16_ewEdIp9R8smv?XsVu#50k/H$fx'e]lb\01,JEweuo*ThaOkP969F51
     P10Mg6D  C2019 02 08m)+/@;@L?8qp$Ge.!SI*yyC59^*JfPcYZnhTcc]URSYy?BLE^KE'F51
     P10Mg6D  C2019 02 08u%?/MbckKDNZv':O6)M[gxZH9rg^5s4n9Cv!ag_hereo`5PTdQjmF51
     P10Mg6D  C2019 02 08pYITHCh6fl7M3qf(W!3fedV2B\Fxi(HHQ#ptEf013!8Fr$)*%ppjF51
     P10Mg6D  C2019 02 09.R*WT\Z$0YDukWv]XIb;Sg1#2E)h!lk/DOfx1VB4!q%XGbjp$+#FF52
     P10Mg6D  C2019 02 09VEUuFS`G0\[eS:w!VhK[sO'j/9+Mm*m(_BNl(OV?dAr$?M5ayJ4(F52
     P10Mg6D  C2019 02 09kfI8nbZv.=Le\6`T;Y\*@[TUc_3T]QsNqvforA?8!GrhfT$Lcs,EF52
     P10Mg6D  C2019 02 09powSK\r!#7:X-;Qu'_TSH'9G+fMp!JgJHtKMVwN3hBlv]wK\%r_-F52
     P10Mg6D  C2019 02 12S^)#`$(34%Hn8nDPkon'O@f\,s(]-DjkNH,RP?f05hXN\$'KLcmOV06
     P10Mg6D  C2019 02 12c[/7);C34cwJRUxh1VJ]\3]Ot(s8s\UTkF7`i$u-VE_1w'w-QZiqV06
     P10Mg6D  C2019 02 12Njm\6:Mv],qDexplanationbp)MmeJ^D[V=p!rJ9!n-7*!e'8Kx]V06

Station data:
(F51) Pan-STARRS 1, Haleakala  (N20.707235 W156.255910)  US/Hawaii.
   Observers N. Primak, A. Schultz, S. Watters, J. Thiel, T. Goggia. Measurer
   PS1 Science Consortium. 1.8-m Ritchey-Chrétien + CCD.
(F52) Pan-STARRS 2, Haleakala  (N20.707384 W156.255910)  US/Hawaii.
(V06) Catalina Sky Survey-Kuiper  (N32.416847 W110.732550)  US/Arizona.
   Observers B. M. Africano, E. J. Christensen, G. A. Farneth, D. C. Fuls, A.
   R. Gibbs, A. D. Grauer, H. Groeller, J. A. Johnson, R. A. Kowalski, S. M.
   Larson, G. J. Leonard, R. L. Seaman, F. C. Shelly. 1.55-m reflector + CCD.

Orbital elements:  P10Mg6D
   Perihelion 2019 Apr 20.403221 +/- 0.0158 TT =  9:40:38 (JD 2458593.903221)
Epoch 2019 Feb 12.0 TT = JDT 2458526.5   Earth MOID: 0.4294   Ma: 0.0053
M 344.06258412 +/- 0.006            (J2000 ecliptic)          AutoNEOCP
n   0.23644887 +/- 7.85e-5          Peri.  135.65401 +/- 0.029
a   2.59006827 +/- 0.000573         Node    53.10919 +/- 0.013
e   0.4550486 +/- 9.46e-5           Incl.    9.03913 +/- 0.0012
P   4.17                   H 21.0   G  0.15   U  6.4  
q 1.41146113 +/- 0.00019    Q 3.76867541 +/- 0.00104
From 20 observations 2019 Jan. 10-Feb. 12; mean residual 0".17
Residuals in arcseconds: 
190110 F51  .03-  .04+    190116 F51  .06-  .18-    190209 F52  .17-  .07+    
190110 F51  .01+  .10+    190116 F51  .34+  .66-    190209 F52  .20-  .02-    
190115 F51  .13-  .03+    190116 F51  .12-  .39+    190209 F52  .14+  .00     
190115 F51  .07-  .08-    190208 F51  .06+  .01-    190212 V06  .03+  .25-    
190115 F51  .03-  .14+    190208 F51  .04-  .15+    190212 V06  .02-  .15+    
190115 F51  .11+  .08+    190208 F51  .02-  .03+    190212 V06  .16+  .12-    
190116 F51  .03+  .07-    190209 F52  .01-  .10+    

Ephemerides (geocentric):
Date (UTC) HH   RA              Dec         delta   r     elong  mag " sig PA
---- -- -- --  -------------   -----------  ------ ------ -----  --- ---- ---
2019 02 13 03  10 32 44.766   +35 17 23.51  .59390 1.5480 155.7 21.6 .175 105
2019 02 13 04  10 32 43.805   +35 17 46.38  .59373 1.5478 155.7 21.6 .178 105
2019 02 13 05  10 32 42.841   +35 18 09.22  .59356 1.5477 155.7 21.6 .180 105
2019 02 13 06  10 32 41.875   +35 18 32.03  .59339 1.5475 155.7 21.6 .183 105
2019 02 13 07  10 32 40.905   +35 18 54.79  .59322 1.5474 155.7 21.6 .186 104
2019 02 13 08  10 32 39.933   +35 19 17.52  .59305 1.5472 155.7 21.6 .188 104
2019 02 13 09  10 32 38.958   +35 19 40.22  .59288 1.5471 155.7 21.6 .191 104
2019 02 13 10  10 32 37.980   +35 20 02.87  .59271 1.5469 155.7 21.6 .194 104
2019 02 13 11  10 32 37.000   +35 20 25.49  .59254 1.5467 155.7 21.6 .196 104
2019 02 13 12  10 32 36.016   +35 20 48.08  .59237 1.5466 155.7 21.6 .199 104
2019 02 13 13  10 32 35.030   +35 21 10.62  .59220 1.5464 155.7 21.6 .202 104
2019 02 13 14  10 32 34.041   +35 21 33.13  .59203 1.5463 155.7 21.6 .204 104
2019 02 13 15  10 32 33.049   +35 21 55.60  .59186 1.5461 155.7 21.6 .207 104
2019 02 13 16  10 32 32.054   +35 22 18.04  .59170 1.5460 155.7 21.6 .210 104
2019 02 13 17  10 32 31.057   +35 22 40.43  .59153 1.5458 155.7 21.6 .213 104
2019 02 13 18  10 32 30.056   +35 23 02.79  .59136 1.5456 155.7 21.6 .215 104
2019 02 13 19  10 32 29.053   +35 23 25.12  .59119 1.5455 155.7 21.6 .218 104
2019 02 13 20  10 32 28.048   +35 23 47.40  .59103 1.5453 155.7 21.6 .221 104
2019 02 13 21  10 32 27.039   +35 24 09.65  .59086 1.5452 155.7 21.6 .224 104
2019 02 13 22  10 32 26.028   +35 24 31.85  .59069 1.5450 155.7 21.6 .226 104
2019 02 13 23  10 32 25.014   +35 24 54.02  .59053 1.5449 155.7 21.6 .229 104
2019 02 14 00  10 32 23.997   +35 25 16.16  .59036 1.5447 155.7 21.6 .232 104
2019 02 14 01  10 32 22.977   +35 25 38.25  .59020 1.5445 155.7 21.6 .235 104
2019 02 14 02  10 32 21.955   +35 26 00.31  .59003 1.5444 155.7 21.6 .238 104
2019 02 14 03  10 32 20.930   +35 26 22.32  .58987 1.5442 155.7 21.6 .240 104
2019 02 14 04  10 32 19.903   +35 26 44.30  .58970 1.5441 155.7 21.6 .243 104
2019 02 14 05  10 32 18.872   +35 27 06.24  .58954 1.5439 155.7 21.6 .246 104
2019 02 14 06  10 32 17.839   +35 27 28.14  .58937 1.5438 155.7 21.6 .249 104
2019 02 14 07  10 32 16.804   +35 27 50.00  .58921 1.5436 155.7 21.6 .252 104
2019 02 14 08  10 32 15.765   +35 28 11.83  .58905 1.5434 155.7 21.6 .255 104
2019 02 14 09  10 32 14.724   +35 28 33.61  .58888 1.5433 155.7 21.6 .257 104
2019 02 14 10  10 32 13.680   +35 28 55.36  .58872 1.5431 155.7 21.6 .260 103
2019 02 14 11  10 32 12.634   +35 29 17.06  .58856 1.5430 155.7 21.6 .263 103
2019 02 14 12  10 32 11.585   +35 29 38.73  .58840 1.5428 155.7 21.6 .266 103
2019 02 14 13  10 32 10.533   +35 30 00.36  .58823 1.5427 155.7 21.6 .269 103
2019 02 14 14  10 32 09.479   +35 30 21.94  .58807 1.5425 155.7 21.6 .272 103
2019 02 14 15  10 32 08.422   +35 30 43.49  .58791 1.5423 155.7 21.6 .275 103
2019 02 14 16  10 32 07.363   +35 31 05.00  .58775 1.5422 155.7 21.6 .278 103
2019 02 14 17  10 32 06.300   +35 31 26.47  .58759 1.5420 155.7 21.6 .280 103
2019 02 14 18  10 32 05.236   +35 31 47.90  .58743 1.5419 155.7 21.6 .283 103
2019 02 14 19  10 32 04.168   +35 32 09.28  .58727 1.5417 155.7 21.6 .286 103
2019 02 14 20  10 32 03.098   +35 32 30.63  .58711 1.5416 155.7 21.6 .289 103
2019 02 14 21  10 32 02.026   +35 32 51.94  .58695 1.5414 155.7 21.6 .292 103
2019 02 14 22  10 32 00.951   +35 33 13.21  .58679 1.5413 155.6 21.6 .295 103
2019 02 14 23  10 31 59.873   +35 33 34.43  .58663 1.5411 155.6 21.6 .298 103
2019 02 15 00  10 31 58.793   +35 33 55.62  .58647 1.5409 155.6 21.6 .301 103
2019 02 15 01  10 31 57.710   +35 34 16.77  .58631 1.5408 155.6 21.6 .304 103
2019 02 15 02  10 31 56.624   +35 34 37.87  .58615 1.5406 155.6 21.6 .307 103